Time,TemperatureF,DewpointF,PressureIn,WindDirection,WindDirectionDegrees,WindSpeedMPH,WindSpeedGustMPH,Humidity,HourlyPrecipIn,Conditions,Clouds,dailyrainin,SoftwareType,DateUTC
2013-05-04 00:02:00,51.0,49.0,29.90,NE,48,0.0,3.0,94,0.00,,,0.16,,2013-05-04 05:02:00,
2013-05-04 00:11:00,51.0,49.0,29.90,NE,48,0.0,3.0,94,0.00,,,0.16,,2013-05-04 05:11:00,
2013-05-04 00:22:00,51.0,50.0,29.91,NE,51,0.0,3.0,95,0.00,,,0.16,,2013-05-04 05:22:00,
2013-05-04 00:32:00,53.0,52.0,29.90,NE,51,0.0,2.0,95,0.00,,,0.16,,2013-05-04 05:32:00,
2013-05-04 00:42:00,53.0,52.0,29.90,NE,51,0.0,2.0,95,0.00,,,0.16,,2013-05-04 05:42:00,
2013-05-04 00:52:00,53.0,51.0,29.90,NE,42,0.0,3.0,94,0.00,,,0.16,,2013-05-04 05:52:00,
2013-05-04 01:01:00,53.0,51.0,29.91,NE,42,0.0,1.0,94,0.00,,,0.15,,2013-05-04 06:01:00,
2013-05-04 01:11:00,53.0,51.0,29.91,NE,42,0.0,1.0,94,0.00,,,0.15,,2013-05-04 06:11:00,
2013-05-04 01:21:00,53.0,51.0,29.91,NE,44,0.0,1.0,94,0.00,,,0.15,,2013-05-04 06:21:00,
2013-05-04 01:32:00,54.0,52.0,29.90,NE,36,0.0,1.0,94,0.01,,,0.16,,2013-05-04 06:32:00,
2013-05-04 01:42:00,54.0,52.0,29.90,NE,36,0.0,1.0,94,0.01,,,0.16,,2013-05-04 06:42:00,
2013-05-04 01:52:00,54.0,52.0,29.90,ENE,65,0.0,1.0,94,0.01,,,0.16,,2013-05-04 06:52:00,
2013-05-04 02:01:00,54.0,53.0,29.89,ESE,105,0.0,0.0,95,0.01,,,0.15,,2013-05-04 07:01:00,
2013-05-04 02:11:00,54.0,53.0,29.89,ESE,105,0.0,0.0,95,0.01,,,0.15,,2013-05-04 07:11:00,
2013-05-04 02:21:00,54.0,53.0,29.89,ESE,105,0.0,0.0,95,0.01,,,0.15,,2013-05-04 07:21:00,
2013-05-04 02:32:00,54.0,53.0,29.89,ESE,105,0.0,0.0,95,0.01,,,0.16,,2013-05-04 07:32:00,
2013-05-04 02:42:00,54.0,53.0,29.89,ESE,105,0.0,0.0,95,0.01,,,0.16,,2013-05-04 07:42:00,
2013-05-04 02:52:00,53.0,52.0,29.89,ESE,105,0.0,0.0,95,0.01,,,0.16,,2013-05-04 07:52:00,
2013-05-04 03:01:00,54.0,53.0,29.90,ESE,105,0.0,0.0,96,0.01,,,0.16,,2013-05-04 08:01:00,
2013-05-04 03:11:00,54.0,53.0,29.90,ESE,105,0.0,0.0,96,0.01,,,0.16,,2013-05-04 08:11:00,
2013-05-04 03:21:00,54.0,53.0,29.88,East,100,0.0,0.0,97,0.01,,,0.16,,2013-05-04 08:21:00,
2013-05-04 03:31:00,54.0,53.0,29.88,East,100,0.0,0.0,96,0.00,,,0.16,,2013-05-04 08:31:00,
2013-05-04 03:42:00,54.0,53.0,29.88,East,100,0.0,0.0,96,0.00,,,0.16,,2013-05-04 08:42:00,
2013-05-04 03:52:00,54.0,53.0,29.88,East,100,0.0,0.0,97,0.00,,,0.16,,2013-05-04 08:52:00,
2013-05-04 04:02:00,54.0,53.0,29.89,East,98,0.0,1.0,97,0.00,,,0.16,,2013-05-04 09:02:00,
2013-05-04 04:11:00,54.0,53.0,29.89,East,98,0.0,1.0,97,0.00,,,0.16,,2013-05-04 09:11:00,
2013-05-04 04:21:00,54.0,53.0,29.88,East,88,0.0,1.0,97,0.00,,,0.16,,2013-05-04 09:21:00,
2013-05-04 04:32:00,53.0,52.0,29.88,East,86,0.0,1.0,97,0.00,,,0.16,,2013-05-04 09:32:00,
2013-05-04 04:42:00,53.0,52.0,29.88,East,86,0.0,1.0,97,0.00,,,0.16,,2013-05-04 09:42:00,
2013-05-04 04:52:00,53.0,52.0,29.89,East,80,0.0,1.0,96,0.00,,,0.16,,2013-05-04 09:52:00,
2013-05-04 05:03:00,53.0,52.0,29.88,East,80,0.0,0.0,97,0.00,,,0.15,,2013-05-04 10:03:00,
2013-05-04 05:12:00,53.0,52.0,29.88,East,80,0.0,0.0,97,0.00,,,0.15,,2013-05-04 10:12:00,
2013-05-04 05:23:00,53.0,52.0,29.89,East,79,0.0,1.0,97,0.00,,,0.15,,2013-05-04 10:23:00,
2013-05-04 05:33:00,53.0,52.0,29.88,East,79,0.0,0.0,97,0.00,,,0.15,,2013-05-04 10:33:00,
2013-05-04 05:42:00,53.0,52.0,29.88,East,79,0.0,0.0,97,0.00,,,0.15,,2013-05-04 10:42:00,
2013-05-04 05:52:00,53.0,52.0,29.88,East,79,0.0,0.0,97,0.00,,,0.15,,2013-05-04 10:52:00,
2013-05-04 06:02:00,53.0,52.0,29.88,NE,42,0.0,1.0,97,0.00,,,0.15,,2013-05-04 11:02:00,
2013-05-04 06:11:00,53.0,52.0,29.88,NE,42,0.0,1.0,97,0.00,,,0.15,,2013-05-04 11:11:00,
2013-05-04 06:21:00,53.0,52.0,29.88,NE,40,0.0,1.0,97,0.00,,,0.15,,2013-05-04 11:21:00,
2013-05-04 06:32:00,53.0,52.0,29.89,North,9,0.0,1.0,97,0.00,,,0.15,,2013-05-04 11:32:00,
2013-05-04 06:42:00,53.0,52.0,29.89,North,9,0.0,1.0,97,0.00,,,0.15,,2013-05-04 11:42:00,
2013-05-04 06:56:00,53.0,52.0,29.90,North,11,0.0,1.0,97,0.00,,,0.15,,2013-05-04 11:56:00,
2013-05-04 07:06:00,53.0,52.0,29.90,NNE,13,0.0,1.0,97,0.01,,,0.16,,2013-05-04 12:06:00,
2013-05-04 07:13:00,53.0,52.0,29.90,NNE,13,0.0,1.0,97,0.01,,,0.16,,2013-05-04 12:13:00,
2013-05-04 07:28:00,53.0,52.0,29.90,NE,38,0.0,2.0,97,0.01,,,0.16,,2013-05-04 12:28:00,
2013-05-04 07:36:00,54.0,53.0,29.91,NE,38,0.0,2.0,97,0.01,,,0.16,,2013-05-04 12:36:00,
2013-05-04 07:42:00,54.0,53.0,29.91,NE,38,0.0,2.0,97,0.01,,,0.16,,2013-05-04 12:42:00,
2013-05-04 07:51:00,54.0,53.0,29.91,ESE,120,0.0,2.0,96,0.01,,,0.16,,2013-05-04 12:51:00,
2013-05-04 08:01:00,55.0,53.0,29.91,NE,37,0.0,2.0,93,0.00,,,0.10,,2013-05-04 13:01:00,
2013-05-04 08:11:00,55.0,53.0,29.91,NE,37,0.0,2.0,93,0.00,,,0.10,,2013-05-04 13:11:00,
2013-05-04 08:21:00,56.0,53.0,29.92,ENE,61,0.0,1.0,91,0.00,,,0.10,,2013-05-04 13:21:00,
2013-05-04 08:32:00,57.0,54.0,29.92,NE,42,0.0,2.0,89,0.00,,,0.10,,2013-05-04 13:32:00,
2013-05-04 08:42:00,57.0,54.0,29.92,NE,42,0.0,2.0,89,0.00,,,0.10,,2013-05-04 13:42:00,
2013-05-04 08:52:00,58.0,54.0,29.92,NE,34,0.0,3.0,86,0.00,,,0.10,,2013-05-04 13:52:00,
2013-05-04 09:02:00,60.0,55.0,29.92,ESE,105,0.0,3.0,83,0.00,,,0.08,,2013-05-04 14:02:00,
2013-05-04 09:11:00,60.0,55.0,29.92,ESE,105,0.0,3.0,83,0.00,,,0.08,,2013-05-04 14:11:00,
2013-05-04 09:21:00,60.0,54.0,29.92,NE,55,0.0,3.0,80,0.00,,,0.08,,2013-05-04 14:21:00,
2013-05-04 09:32:00,62.0,54.0,29.92,ESE,117,0.0,3.0,76,0.00,,,0.08,,2013-05-04 14:32:00,
2013-05-04 09:42:00,62.0,54.0,29.92,ESE,117,0.0,3.0,76,0.00,,,0.08,,2013-05-04 14:42:00,
2013-05-04 09:51:00,62.0,54.0,29.93,North,9,0.0,4.0,75,0.00,,,0.08,,2013-05-04 14:51:00,
2013-05-04 10:02:00,62.0,53.0,29.93,SSE,152,1.0,5.0,73,0.00,,,0.07,,2013-05-04 15:02:00,
2013-05-04 10:12:00,62.0,53.0,29.93,SSE,152,1.0,5.0,73,0.00,,,0.07,,2013-05-04 15:12:00,
2013-05-04 10:22:00,63.0,54.0,29.93,ESE,105,1.0,10.0,73,0.00,,,0.07,,2013-05-04 15:22:00,
2013-05-04 10:33:00,64.0,54.0,29.94,SSW,192,0.0,5.0,70,0.00,,,0.07,,2013-05-04 15:33:00,
2013-05-04 10:43:00,64.0,54.0,29.94,SSW,192,0.0,5.0,70,0.00,,,0.07,,2013-05-04 15:43:00,
2013-05-04 10:52:00,65.0,53.0,29.94,SSE,150,1.0,6.0,66,0.00,,,0.07,,2013-05-04 15:52:00,
2013-05-04 11:03:00,66.0,54.0,29.94,ESE,105,2.0,8.0,65,0.00,,,0.06,,2013-05-04 16:03:00,
2013-05-04 11:12:00,66.0,54.0,29.94,ESE,105,2.0,8.0,65,0.00,,,0.06,,2013-05-04 16:12:00,
2013-05-04 11:22:00,68.0,55.0,29.93,SSE,154,1.0,7.0,63,0.00,,,0.06,,2013-05-04 16:22:00,
2013-05-04 11:33:00,69.0,56.0,29.93,North,5,1.0,5.0,64,0.00,,,0.06,,2013-05-04 16:33:00,
2013-05-04 11:42:00,69.0,56.0,29.93,North,5,1.0,5.0,64,0.00,,,0.06,,2013-05-04 16:42:00,
2013-05-04 11:52:00,70.0,56.0,29.93,NE,44,0.0,4.0,62,0.00,,,0.06,,2013-05-04 16:52:00,
2013-05-04 12:02:00,70.0,55.0,29.93,SSW,196,3.0,9.0,59,0.00,,,0.04,,2013-05-04 17:02:00,
2013-05-04 12:12:00,70.0,55.0,29.93,SSW,196,3.0,9.0,59,0.00,,,0.04,,2013-05-04 17:12:00,
2013-05-04 12:22:00,70.0,55.0,29.93,South,169,3.0,6.0,59,0.00,,,0.04,,2013-05-04 17:22:00,
2013-05-04 12:32:00,70.0,54.0,29.92,SE,146,2.0,10.0,57,0.00,,,0.04,,2013-05-04 17:32:00,
2013-05-04 12:42:00,70.0,54.0,29.92,SE,146,2.0,10.0,57,0.00,,,0.04,,2013-05-04 17:42:00,
2013-05-04 12:52:00,71.0,55.0,29.91,East,93,1.0,7.0,57,0.00,,,0.04,,2013-05-04 17:52:00,
2013-05-04 13:01:00,71.0,55.0,29.91,SE,140,2.0,5.0,58,0.00,,,0.03,,2013-05-04 18:01:00,
2013-05-04 13:12:00,71.0,55.0,29.91,SE,140,2.0,5.0,58,0.00,,,0.03,,2013-05-04 18:12:00,
2013-05-04 13:21:00,72.0,57.0,29.91,ENE,73,0.0,5.0,59,0.00,,,0.03,,2013-05-04 18:21:00,
2013-05-04 13:32:00,72.0,56.0,29.91,SE,146,1.0,8.0,57,0.00,,,0.03,,2013-05-04 18:32:00,
2013-05-04 13:42:00,72.0,56.0,29.91,SE,146,1.0,8.0,57,0.00,,,0.03,,2013-05-04 18:42:00,
2013-05-04 13:52:00,72.0,57.0,29.91,NE,42,0.0,4.0,60,0.00,,,0.03,,2013-05-04 18:52:00,
2013-05-04 14:01:00,72.0,57.0,29.90,North,5,0.0,2.0,59,0.00,,,0.03,,2013-05-04 19:01:00,
2013-05-04 14:11:00,72.0,57.0,29.90,North,5,0.0,2.0,59,0.00,,,0.03,,2013-05-04 19:11:00,
2013-05-04 14:21:00,72.0,55.0,29.90,NE,50,0.0,3.0,55,0.00,,,0.03,,2013-05-04 19:21:00,
2013-05-04 14:32:00,71.0,55.0,29.90,SE,139,0.0,1.0,57,0.00,,,0.03,,2013-05-04 19:32:00,
2013-05-04 14:42:00,71.0,55.0,29.90,SE,139,0.0,1.0,57,0.00,,,0.03,,2013-05-04 19:42:00,
2013-05-04 14:52:00,70.0,55.0,29.90,NE,48,0.0,2.0,60,0.00,,,0.03,,2013-05-04 19:52:00,
2013-05-04 15:02:00,69.0,56.0,29.89,ESE,122,0.0,3.0,63,0.00,,,0.03,,2013-05-04 20:02:00,
2013-05-04 15:11:00,69.0,56.0,29.89,ESE,122,0.0,3.0,63,0.00,,,0.03,,2013-05-04 20:11:00,
2013-05-04 15:22:00,67.0,56.0,29.90,SSW,194,3.0,7.0,68,0.00,,,0.03,,2013-05-04 20:22:00,
2013-05-04 15:32:00,64.0,56.0,29.91,South,173,4.0,7.0,76,0.00,,,0.03,,2013-05-04 20:32:00,
2013-05-04 15:42:00,64.0,56.0,29.91,South,173,4.0,7.0,76,0.00,,,0.03,,2013-05-04 20:42:00,
2013-05-04 15:51:00,64.0,58.0,29.91,South,182,2.0,6.0,81,0.00,,,0.03,,2013-05-04 20:51:00,
2013-05-04 16:02:00,63.0,57.0,29.91,SSW,200,3.0,8.0,82,0.00,,,0.03,,2013-05-04 21:02:00,
2013-05-04 16:12:00,63.0,57.0,29.91,SSW,200,3.0,8.0,82,0.00,,,0.03,,2013-05-04 21:12:00,
2013-05-04 16:22:00,63.0,57.0,29.91,SSW,195,1.0,3.0,80,0.00,,,0.03,,2013-05-04 21:22:00,
2013-05-04 16:33:00,63.0,57.0,29.92,SSW,192,4.0,8.0,81,0.00,,,0.03,,2013-05-04 21:33:00,
2013-05-04 16:43:00,63.0,57.0,29.92,SSW,192,4.0,8.0,81,0.00,,,0.03,,2013-05-04 21:43:00,
2013-05-04 16:53:00,62.0,56.0,29.92,SSE,167,4.0,7.0,81,0.00,,,0.03,,2013-05-04 21:53:00,
2013-05-04 17:03:00,62.0,57.0,29.92,South,190,3.0,7.0,84,0.00,,,0.03,,2013-05-04 22:03:00,
2013-05-04 17:12:00,62.0,57.0,29.92,South,190,3.0,7.0,84,0.00,,,0.03,,2013-05-04 22:12:00,
2013-05-04 17:22:00,61.0,56.0,29.93,South,186,6.0,9.0,83,0.00,,,0.03,,2013-05-04 22:22:00,
2013-05-04 17:33:00,60.0,55.0,29.93,SSE,166,6.0,10.0,85,0.00,,,0.03,,2013-05-04 22:33:00,
2013-05-04 17:42:00,60.0,55.0,29.93,SSE,166,6.0,10.0,85,0.00,,,0.03,,2013-05-04 22:42:00,
2013-05-04 17:52:00,59.0,55.0,29.93,SSW,197,4.0,11.0,86,0.00,,,0.03,,2013-05-04 22:52:00,
2013-05-04 18:02:00,59.0,55.0,29.94,South,181,2.0,6.0,86,0.00,,,0.03,,2013-05-04 23:02:00,
2013-05-04 18:12:00,59.0,55.0,29.94,South,181,2.0,6.0,86,0.00,,,0.03,,2013-05-04 23:12:00,
2013-05-04 18:22:00,59.0,55.0,29.94,South,175,2.0,6.0,86,0.00,,,0.03,,2013-05-04 23:22:00,
2013-05-04 18:32:00,59.0,55.0,29.94,SSW,196,0.0,5.0,86,0.00,,,0.03,,2013-05-04 23:32:00,
2013-05-04 18:42:00,59.0,55.0,29.94,SSW,196,0.0,5.0,86,0.00,,,0.03,,2013-05-04 23:42:00,
2013-05-04 18:52:00,59.0,54.0,29.95,South,182,1.0,3.0,85,0.00,,,0.03,,2013-05-04 23:52:00,
2013-05-04 19:02:00,59.0,54.0,29.95,South,176,0.0,4.0,84,0.00,,,0.03,,2013-05-05 00:02:00,
2013-05-04 19:11:00,59.0,54.0,29.95,South,176,0.0,4.0,84,0.00,,,0.03,,2013-05-05 00:11:00,
2013-05-04 19:21:00,59.0,54.0,29.96,South,177,0.0,4.0,84,0.00,,,0.03,,2013-05-05 00:21:00,
2013-05-04 19:32:00,59.0,54.0,29.96,South,177,0.0,2.0,85,0.00,,,0.03,,2013-05-05 00:32:00,
2013-05-04 19:42:00,59.0,54.0,29.96,South,177,0.0,2.0,85,0.00,,,0.03,,2013-05-05 00:42:00,
2013-05-04 19:51:00,59.0,55.0,29.97,South,177,0.0,3.0,86,0.00,,,0.03,,2013-05-05 00:51:00,
2013-05-04 20:01:00,59.0,55.0,29.97,South,177,0.0,0.0,87,0.00,,,0.03,,2013-05-05 01:01:00,
2013-05-04 20:11:00,59.0,55.0,29.97,South,177,0.0,0.0,87,0.00,,,0.03,,2013-05-05 01:11:00,
2013-05-04 20:21:00,59.0,55.0,29.98,South,177,0.0,0.0,88,0.00,,,0.03,,2013-05-05 01:21:00,
2013-05-04 20:32:00,58.0,54.0,29.99,South,177,0.0,0.0,88,0.00,,,0.03,,2013-05-05 01:32:00,
2013-05-04 20:42:00,58.0,54.0,29.99,South,177,0.0,0.0,88,0.00,,,0.03,,2013-05-05 01:42:00,
2013-05-04 20:52:00,58.0,55.0,29.99,South,177,0.0,0.0,89,0.00,,,0.03,,2013-05-05 01:52:00,
2013-05-04 21:02:00,58.0,55.0,29.99,South,177,0.0,1.0,89,0.00,,,0.03,,2013-05-05 02:02:00,
2013-05-04 21:11:00,58.0,55.0,29.99,South,177,0.0,1.0,89,0.00,,,0.03,,2013-05-05 02:11:00,
2013-05-04 21:22:00,58.0,55.0,29.99,South,177,0.0,0.0,89,0.00,,,0.03,,2013-05-05 02:22:00,
2013-05-04 21:31:00,58.0,55.0,29.99,South,177,0.0,0.0,89,0.00,,,0.03,,2013-05-05 02:31:00,
2013-05-04 21:42:00,58.0,55.0,29.99,South,177,0.0,0.0,89,0.00,,,0.03,,2013-05-05 02:42:00,
2013-05-04 21:52:00,58.0,55.0,30.00,South,177,0.0,0.0,90,0.00,,,0.03,,2013-05-05 02:52:00,
2013-05-04 22:01:00,58.0,55.0,30.00,South,177,0.0,0.0,90,0.00,,,0.03,,2013-05-05 03:01:00,
2013-05-04 22:11:00,58.0,55.0,30.00,South,177,0.0,0.0,90,0.00,,,0.03,,2013-05-05 03:11:00,
2013-05-04 22:21:00,57.0,54.0,30.01,South,177,0.0,0.0,90,0.00,,,0.03,,2013-05-05 03:21:00,
2013-05-04 22:33:00,57.0,54.0,30.01,South,177,0.0,0.0,91,0.00,,,0.03,,2013-05-05 03:33:00,
2013-05-04 22:42:00,57.0,54.0,30.01,South,177,0.0,0.0,91,0.00,,,0.03,,2013-05-05 03:42:00,
2013-05-04 22:53:00,56.0,53.0,30.01,South,177,0.0,0.0,91,0.00,,,0.03,,2013-05-05 03:53:00,
2013-05-04 23:02:00,56.0,54.0,30.01,South,177,0.0,0.0,92,0.00,,,0.03,,2013-05-05 04:02:00,
2013-05-04 23:12:00,56.0,54.0,30.01,South,177,0.0,0.0,92,0.00,,,0.03,,2013-05-05 04:12:00,
2013-05-04 23:23:00,55.0,53.0,30.01,South,177,0.0,0.0,93,0.00,,,0.03,,2013-05-05 04:23:00,
2013-05-04 23:32:00,54.0,52.0,30.00,South,177,0.0,0.0,93,0.00,,,0.03,,2013-05-05 04:32:00,
2013-05-04 23:43:00,54.0,52.0,30.00,South,177,0.0,0.0,93,0.00,,,0.03,,2013-05-05 04:43:00,
2013-05-04 23:52:00,54.0,52.0,30.00,South,177,0.0,0.0,93,0.00,,,0.03,,2013-05-05 04:52:00,